This is the latest recevied weather packets stored in our database for station/object JH7UAX-10. If no packets are shown the sender has not sent any weather packets the latest 10 day(s).
| Time | Temp. | Humidity | Pressure | Rain* | Wind** | Luminosity | Snow |
|---|---|---|---|---|---|---|---|
| 1788277455 | 20° C | 96% | 1023.6 hPa | 6.35 mm | - | - | - |
| 1788276553 | 20° C | 95% | 1024 hPa | 6.6 mm | - | - | - |
| 1788275654 | 20° C | 95% | 1023.7 hPa | 3.81 mm | - | - | - |
| 1788274754 | 20.56° C | 95% | 1024.1 hPa | 3.56 mm | - | - | - |
| 1788272055 | 20.56° C | 92% | 1024.8 hPa | 1.02 mm | - | - | - |
| 1788271154 | 21.11° C | 89% | 1024.8 hPa | 0.51 mm | - | - | - |
| 1788270270 | 21.67° C | 87% | 1025.3 hPa | 0 mm | - | - | - |
| 1788269354 | 21.67° C | 87% | 1025.7 hPa | 0 mm | - | - | - |
| 1788268455 | 21.67° C | 87% | 1025.6 hPa | 0 mm | - | - | - |
| 1788267555 | 21.67° C | 87% | 1025.9 hPa | 0 mm | - | - | - |
| 1788266655 | 21.67° C | 87% | 1026.2 hPa | 0 mm | - | - | - |
| 1788265755 | 21.67° C | 87% | 1026.8 hPa | 0 mm | - | - | - |
| 1788264854 | 21.67° C | 87% | 1026.7 hPa | 0 mm | - | - | - |
| 1788262155 | 21.67° C | 88% | 1027.9 hPa | 0 mm | - | - | - |
| 1788261253 | 21.67° C | 87% | 1028.6 hPa | 0 mm | - | - | - |
| 1788260354 | 21.67° C | 87% | 1027.2 hPa | 0 mm | - | - | - |
| 1788259455 | 21.67° C | 87% | 1026.8 hPa | 0 mm | - | - | - |
| 1788258554 | 21.67° C | 87% | 1027.1 hPa | 0 mm | - | - | - |
| 1788257656 | 21.67° C | 87% | 1027.1 hPa | 0 mm | - | - | - |
| 1788256754 | 21.67° C | 87% | 1026.8 hPa | 0 mm | - | - | - |
| 1788255855 | 21.67° C | 87% | 1027.1 hPa | 0 mm | - | - | - |
| 1788254954 | 21.67° C | 87% | 1027.2 hPa | 0 mm | - | - | - |
| 1788254054 | 21.67° C | 87% | 1027.2 hPa | 0 mm | - | - | - |
| 1788253155 | 21.67° C | 87% | 1027.1 hPa | 0 mm | - | - | - |
| 1788252254 | 21.67° C | 87% | 1027.5 hPa | 0 mm | - | - | - |
* Rain latest hour (hover to see other rain measurements)
** Current wind speed in m/s (hover to see current wind gust speed)